User: anonymous   Login
Location: Caltech
(34.1382°N, 118.1253°W)
Time: 13:04:05
(UTC-07:00)
Language:

Oscar 10/S400 - Orbit

View from above orbital plane
View from above orbital plane
View from above satellite
View from above satellite

Ground track
Ground track

The orbit data is extracted from the following two-line orbital elements,

1 14129U 83058B   15085.24979740 -.00000192  00000-0  00000+0 0  9994
2 14129 025.8040 167.7433 6076769 083.6217 350.5792 02.05871986211053
Epoch (UTC): 26 March 2015 05:59:42
Eccentricity: 0.6076769
inclination: 25.8040°
perigee height: 3862 km
apogee height: 35585 km
right ascension of ascending node: 167.7433°
argument of perigee: 83.6217°
revolutions per day: 2.05871986
mean anomaly at epoch: 350.5792°
orbit number at epoch: 21105

The dashed part of the orbit path shows where the satellite is in the earth's shadow,  

DLR